sat.trackr.live / text

‹ back to catalog

UNKNOWN

NORAD 82739

UNKNOWN UNKNOWN UNKNOWN

§ Identity

Operator
Country
Launch date
Launch site
Launch vehicle
Mass (kg)
RCS (m²)

External: N2YO · Heavens-Above

§ Orbital elements

Epoch: 2026-09-17T16:58:59.767680Z

Period
104.09 min
Inclination
99.1118°
Eccentricity
0.0168815
Mean motion
13.83440111 rev/d
Perigee alt
828.0 km
Apogee alt
1,075.4 km
Semi-major
7,329.8 km
B*
1.1063e-3
RAAN
52.9389°
Arg perigee
265.2425°
Mean anomaly
107.0760°
Rev number
64,467

§ Raw data

UNKNOWN1 82739U          26260.70763620  .00001315  00000+0  11063-2 0  99982 82739  99.1118  52.9389 0168815 265.2425 107.0760 13.83440111644675

JSON: /api/v1/satellites/82739 · /tle

For live sub-satellite position, see the globe view (requires WebGL).

§ Visibility from observer

Set your observer location to see the next 7 days of passes ≥ 10°. The values pass through the URL so the page stays shareable.

No JS? Fill the form by hand. The geolocation button needs JavaScript.